Вернуться в каталог

STARLINK-11246

АктивенСвязьVLEO
NORAD 60932·PAYLOAD·🇺🇸 United States

Запущен Aug 31, 2024 с Vandenberg Space Force Base

Loading…

Ближайшие Пролёты (ближайшие 24 часа)

TLE

СвежийSource: CelesTrak SupGP

Эпоха: Sep 14, 2026, 22:58 UTC

1 60932C 24155J   26257.95743056 -.00045721  00000+0 -37662-3 0  2572
2 60932  53.1567 128.0235 0001202  89.9479 206.2469 15.69732157    17

Отслеживайте STARLINK-11246 в реальном времени с AllMySat

Download on the App Store